DLH8MF EDDH-EDDF

Flight info

Callsign DLH8MF
Flight time 0h 57m
Altitude 30000
Route AMLUH2G/33 AMLUH M852 DENIX DCT RIMET/N0431F310 T157 KOKEB/N0384F230 T157 KERAX KERAX5A
Aircraft A321/M-SDE3FGHIRWY/LB1

Departure

Time 2026-05-07 18:12
Airport Hamburg Helmut Schmidt Airport (EDDH)

Arrival

Time 2026-05-07 19:09
Airport Frankfurt Main Airport (EDDF)
Time Latitude Longitude Altitude Speed Heading
2026-05-07 17:21 53.63167 10.00359 49 ft 0 kts 86°
2026-05-07 17:58 53.63167 10.00344 48 ft 3 kts 86°
2026-05-07 17:58 53.63166 10.00314 48 ft 3 kts 88°
2026-05-07 17:59 53.63167 10.00280 47 ft 3 kts 115°
2026-05-07 17:59 53.63179 10.00255 46 ft 3 kts 159°
2026-05-07 17:59 53.63190 10.00250 48 ft 0 kts 176°
2026-05-07 18:02 53.63188 10.00250 48 ft 1 kts 176°
2026-05-07 18:03 53.63172 10.00252 48 ft 3 kts 176°
2026-05-07 18:03 53.63140 10.00256 48 ft 6 kts 176°
2026-05-07 18:03 53.63092 10.00262 48 ft 8 kts 176°
2026-05-07 18:03 53.63037 10.00229 48 ft 9 kts 212°
2026-05-07 18:04 53.62977 10.00164 48 ft 11 kts 213°
2026-05-07 18:04 53.62908 10.00090 46 ft 10 kts 212°
2026-05-07 18:04 53.62870 10.00036 48 ft 6 kts 234°
2026-05-07 18:04 53.62847 9.99967 48 ft 5 kts 243°
2026-05-07 18:05 53.62845 9.99961 45 ft 0 kts 243°
2026-05-07 18:09 53.62838 9.99937 46 ft 4 kts 243°
2026-05-07 18:09 53.62817 9.99869 44 ft 9 kts 243°
2026-05-07 18:10 53.62806 9.99829 43 ft 5 kts 245°
2026-05-07 18:10 53.62827 9.99782 45 ft 6 kts 328°
2026-05-07 18:10 53.62846 9.99765 45 ft 0 kts 332°
2026-05-07 18:11 53.62870 9.99743 45 ft 17 kts 332°
2026-05-07 18:11 53.63235 9.99430 47 ft 98 kts 333°
2026-05-07 18:11 53.64050 9.98721 52 ft 162 kts 331°
2026-05-07 18:12 53.65066 9.97793 662 ft 165 kts 336°
2026-05-07 18:12 53.66086 9.96919 1429 ft 164 kts 338°
2026-05-07 18:12 53.67110 9.96050 2050 ft 167 kts 338°
2026-05-07 18:12 53.68150 9.95165 2710 ft 168 kts 338°
2026-05-07 18:13 53.69260 9.94646 3330 ft 167 kts
2026-05-07 18:13 53.70482 9.94696 3712 ft 185 kts
2026-05-07 18:13 53.71829 9.94785 4107 ft 202 kts 11°
2026-05-07 18:13 53.73163 9.95696 4480 ft 213 kts 40°
2026-05-07 18:14 53.74091 9.97640 5143 ft 215 kts 69°
2026-05-07 18:14 53.74371 10.00092 5979 ft 216 kts 90°
2026-05-07 18:14 53.74278 10.02668 6695 ft 223 kts 101°
2026-05-07 18:14 53.73728 10.05154 7302 ft 236 kts 119°
2026-05-07 18:15 53.72853 10.07656 7660 ft 259 kts 119°
2026-05-07 18:15 53.71942 10.10345 8255 ft 270 kts 118°
2026-05-07 18:15 53.71007 10.13141 8960 ft 277 kts 118°
2026-05-07 18:15 53.70047 10.16018 9490 ft 285 kts 119°
2026-05-07 18:16 53.68861 10.18663 9757 ft 285 kts 135°
2026-05-07 18:16 53.67280 10.20699 10014 ft 289 kts 150°
2026-05-07 18:16 53.65334 10.22015 10099 ft 316 kts 164°
2026-05-07 18:16 53.63115 10.23030 10118 ft 344 kts 165°
2026-05-07 18:17 53.60725 10.24117 10140 ft 364 kts 165°
2026-05-07 18:17 53.58305 10.25219 11145 ft 352 kts 165°
2026-05-07 18:17 53.55931 10.26303 12141 ft 348 kts 165°
2026-05-07 18:17 53.53611 10.27361 12874 ft 350 kts 165°
2026-05-07 18:18 53.51229 10.28443 13567 ft 354 kts 165°
2026-05-07 18:18 53.48835 10.29531 14199 ft 357 kts 165°
2026-05-07 18:18 53.46425 10.30626 14807 ft 360 kts 166°
2026-05-07 18:18 53.43997 10.31728 15407 ft 364 kts 166°
2026-05-07 18:19 53.41537 10.32846 16006 ft 367 kts 166°
2026-05-07 18:19 53.39065 10.33964 16605 ft 370 kts 166°
2026-05-07 18:19 53.36565 10.35089 17189 ft 374 kts 165°
2026-05-07 18:19 53.34044 10.36225 17775 ft 377 kts 166°
2026-05-07 18:20 53.31499 10.37371 18341 ft 380 kts 166°
2026-05-07 18:20 53.28930 10.38525 18853 ft 383 kts 166°
2026-05-07 18:20 53.26348 10.39683 19361 ft 386 kts 166°
2026-05-07 18:20 53.23748 10.40841 19865 ft 389 kts 166°
2026-05-07 18:21 53.21132 10.42005 20357 ft 391 kts 166°
2026-05-07 18:21 53.18491 10.43181 20851 ft 394 kts 166°
2026-05-07 18:21 53.15824 10.44369 21340 ft 397 kts 166°
2026-05-07 18:21 53.13124 10.45250 21807 ft 398 kts 175°
2026-05-07 18:22 53.10363 10.45354 22276 ft 399 kts 185°
2026-05-07 18:22 53.08530 10.45103 22584 ft 400 kts 186°
2026-05-07 18:22 53.04788 10.44577 23219 ft 404 kts 186°
2026-05-07 18:22 53.01983 10.44183 23681 ft 406 kts 186°
2026-05-07 18:23 52.99163 10.43790 24078 ft 409 kts 186°
2026-05-07 18:23 52.96317 10.43397 24471 ft 411 kts 186°
2026-05-07 18:23 52.93455 10.43004 24862 ft 414 kts 186°
2026-05-07 18:23 52.90578 10.42612 25257 ft 416 kts 186°
2026-05-07 18:24 52.87678 10.42220 25643 ft 418 kts 186°
2026-05-07 18:24 52.84774 10.41828 26023 ft 421 kts 186°
2026-05-07 18:24 52.81808 10.41427 26408 ft 423 kts 186°
2026-05-07 18:24 52.78863 10.41028 26767 ft 426 kts 186°
2026-05-07 18:25 52.75900 10.40625 27120 ft 429 kts 186°
2026-05-07 18:25 52.72921 10.40223 27544 ft 429 kts 185°
2026-05-07 18:25 52.69945 10.39819 28028 ft 429 kts 186°
2026-05-07 18:25 52.66972 10.39413 28529 ft 428 kts 185°
2026-05-07 18:26 52.64013 10.39013 29038 ft 427 kts 185°
2026-05-07 18:26 52.61044 10.38615 29543 ft 426 kts 185°
2026-05-07 18:26 52.58089 10.38220 29996 ft 427 kts 185°
2026-05-07 18:26 52.55137 10.37826 30098 ft 426 kts 185°
2026-05-07 18:27 52.52176 10.37430 30111 ft 427 kts 185°
2026-05-07 18:27 52.46244 10.36653 30112 ft 427 kts 185°
2026-05-07 18:28 52.40327 10.35869 30113 ft 427 kts 185°
2026-05-07 18:28 52.34387 10.35065 30114 ft 428 kts 185°
2026-05-07 18:29 52.28469 10.34282 30089 ft 428 kts 185°
2026-05-07 18:29 52.22529 10.33500 30105 ft 428 kts 185°
2026-05-07 18:30 52.16582 10.32710 30110 ft 429 kts 185°
2026-05-07 18:30 52.10617 10.31916 30115 ft 429 kts 185°
2026-05-07 18:31 52.04674 10.31138 30114 ft 429 kts 185°
2026-05-07 18:31 51.98686 10.30367 30117 ft 429 kts 185°
2026-05-07 18:32 51.92726 10.29588 30119 ft 429 kts 185°
2026-05-07 18:32 51.86787 10.28797 30117 ft 429 kts 185°
2026-05-07 18:33 51.80861 10.28028 29381 ft 425 kts 185°
2026-05-07 18:33 51.77921 10.27648 28674 ft 423 kts 186°
2026-05-07 18:33 51.75004 10.27268 27987 ft 420 kts 186°
2026-05-07 18:33 51.72096 10.26889 27315 ft 418 kts 186°
2026-05-07 18:34 51.69203 10.26515 26658 ft 416 kts 186°
2026-05-07 18:34 51.66323 10.26147 26015 ft 413 kts 186°
2026-05-07 18:34 51.63463 10.25782 25461 ft 409 kts 186°
2026-05-07 18:34 51.60649 10.25421 25217 ft 407 kts 186°
2026-05-07 18:35 51.57828 10.25056 25070 ft 406 kts 186°
2026-05-07 18:35 51.55011 10.24691 25096 ft 406 kts 186°
2026-05-07 18:35 51.52194 10.24326 25098 ft 406 kts 186°
2026-05-07 18:35 51.49341 10.23960 25098 ft 406 kts 186°
2026-05-07 18:36 51.46557 10.23603 25097 ft 406 kts 186°
2026-05-07 18:36 51.43700 10.23241 25098 ft 406 kts 186°
2026-05-07 18:36 51.40924 10.22891 25098 ft 406 kts 186°
2026-05-07 18:36 51.38068 10.22529 25097 ft 407 kts 186°
2026-05-07 18:37 51.35238 10.22168 25087 ft 406 kts 186°
2026-05-07 18:37 51.32419 10.21836 25092 ft 406 kts 184°
2026-05-07 18:37 51.29592 10.21653 24942 ft 406 kts 183°
2026-05-07 18:37 51.26802 10.21138 24695 ft 402 kts 197°
2026-05-07 18:38 51.24256 10.19406 24451 ft 398 kts 213°
2026-05-07 18:38 51.21998 10.16856 24215 ft 396 kts 217°
2026-05-07 18:38 51.19783 10.14274 24062 ft 395 kts 217°
2026-05-07 18:38 51.17559 10.11691 24084 ft 395 kts 217°
2026-05-07 18:39 51.15340 10.09118 24088 ft 395 kts 217°
2026-05-07 18:39 51.13122 10.06550 24083 ft 395 kts 217°
2026-05-07 18:39 51.10893 10.03974 24089 ft 396 kts 217°
2026-05-07 18:39 51.08659 10.01392 24090 ft 396 kts 217°
2026-05-07 18:40 51.06432 9.98824 24097 ft 396 kts 217°
2026-05-07 18:40 51.04199 9.96253 24091 ft 396 kts 217°
2026-05-07 18:40 51.01962 9.93681 24094 ft 397 kts 217°
2026-05-07 18:40 51.00450 9.91942 24091 ft 397 kts 217°
2026-05-07 18:41 50.98213 9.89370 24094 ft 398 kts 217°
2026-05-07 18:41 50.95977 9.86802 23826 ft 394 kts 217°
2026-05-07 18:41 50.93763 9.84264 23357 ft 392 kts 217°
2026-05-07 18:41 50.91553 9.81731 22918 ft 391 kts 217°
2026-05-07 18:42 50.89357 9.79223 22476 ft 389 kts 217°
2026-05-07 18:42 50.87169 9.76729 22044 ft 387 kts 217°
2026-05-07 18:42 50.84985 9.74236 21618 ft 385 kts 217°
2026-05-07 18:42 50.82821 9.71764 21197 ft 382 kts 217°
2026-05-07 18:43 50.80669 9.69313 20789 ft 380 kts 217°
2026-05-07 18:43 50.78528 9.66880 20378 ft 378 kts 217°
2026-05-07 18:43 50.76398 9.64470 19975 ft 376 kts 217°
2026-05-07 18:43 50.74280 9.62078 19587 ft 374 kts 217°
2026-05-07 18:44 50.72172 9.59697 19194 ft 372 kts 217°
2026-05-07 18:44 50.70078 9.57324 18815 ft 370 kts 217°
2026-05-07 18:44 50.67996 9.54962 18422 ft 368 kts 217°
2026-05-07 18:44 50.65925 9.52617 17995 ft 366 kts 217°
2026-05-07 18:45 50.63869 9.50297 17570 ft 364 kts 217°
2026-05-07 18:45 50.61815 9.47985 17142 ft 361 kts 217°
2026-05-07 18:45 50.59746 9.45658 16717 ft 359 kts 217°
2026-05-07 18:45 50.57718 9.43378 16301 ft 357 kts 217°
2026-05-07 18:46 50.55700 9.41114 15886 ft 355 kts 217°
2026-05-07 18:46 50.53693 9.38862 15474 ft 353 kts 217°
2026-05-07 18:46 50.51696 9.36625 15090 ft 351 kts 217°
2026-05-07 18:46 50.49710 9.34406 14688 ft 349 kts 217°
2026-05-07 18:47 50.47736 9.32200 14295 ft 347 kts 217°
2026-05-07 18:47 50.45776 9.30015 13918 ft 345 kts 217°
2026-05-07 18:47 50.43823 9.27840 13492 ft 343 kts 216°
2026-05-07 18:47 50.41886 9.25687 13127 ft 340 kts 216°
2026-05-07 18:48 50.39940 9.23591 13073 ft 340 kts 214°
2026-05-07 18:48 50.37941 9.21590 13079 ft 341 kts 213°
2026-05-07 18:48 50.35920 9.19655 13079 ft 341 kts 212°
2026-05-07 18:48 50.33883 9.17737 13078 ft 341 kts 212°
2026-05-07 18:49 50.31847 9.15816 13079 ft 341 kts 212°
2026-05-07 18:49 50.29824 9.13884 13078 ft 341 kts 214°
2026-05-07 18:49 50.28550 9.12374 13069 ft 340 kts 224°
2026-05-07 18:50 50.25536 9.04495 13077 ft 335 kts 251°
2026-05-07 18:50 50.24737 9.01035 13073 ft 336 kts 251°
2026-05-07 18:50 50.23936 8.97602 13072 ft 336 kts 250°
2026-05-07 18:50 50.23135 8.94190 13070 ft 336 kts 250°
2026-05-07 18:51 50.22332 8.90776 13069 ft 336 kts 250°
2026-05-07 18:51 50.21526 8.87352 13068 ft 336 kts 250°
2026-05-07 18:51 50.20723 8.83939 13066 ft 336 kts 250°
2026-05-07 18:51 50.19916 8.80518 13065 ft 336 kts 250°
2026-05-07 18:52 50.19110 8.77095 13064 ft 336 kts 250°
2026-05-07 18:52 50.18304 8.73685 13062 ft 336 kts 250°
2026-05-07 18:52 50.17493 8.70263 13062 ft 336 kts 250°
2026-05-07 18:52 50.16945 8.67958 13060 ft 336 kts 250°
2026-05-07 18:53 50.15871 8.63440 13058 ft 336 kts 250°
2026-05-07 18:53 50.15321 8.61138 13059 ft 336 kts 250°
2026-05-07 18:53 50.14504 8.57726 13058 ft 335 kts 250°
2026-05-07 18:53 50.13690 8.54314 13058 ft 336 kts 250°
2026-05-07 18:54 50.12889 8.50959 13057 ft 321 kts 250°
2026-05-07 18:54 50.12133 8.47800 12979 ft 304 kts 250°
2026-05-07 18:54 50.11409 8.44781 12851 ft 291 kts 250°
2026-05-07 18:54 50.10714 8.41891 12717 ft 279 kts 250°
2026-05-07 18:55 50.10040 8.39115 12586 ft 268 kts 250°
2026-05-07 18:55 50.09394 8.36457 12436 ft 258 kts 250°
2026-05-07 18:55 50.08765 8.33867 12033 ft 254 kts 250°
2026-05-07 18:55 50.08146 8.31299 11590 ft 253 kts 250°
2026-05-07 18:56 50.07530 8.28743 11142 ft 251 kts 250°
2026-05-07 18:56 50.06914 8.26204 10713 ft 250 kts 250°
2026-05-07 18:56 50.06288 8.23638 10288 ft 249 kts 250°
2026-05-07 18:56 50.05683 8.21154 9847 ft 249 kts 250°
2026-05-07 18:57 50.05073 8.18650 9389 ft 247 kts 250°
2026-05-07 18:57 50.04462 8.16152 8953 ft 246 kts 250°
2026-05-07 18:57 50.03850 8.13643 8626 ft 244 kts 250°
2026-05-07 18:57 50.03251 8.11184 8360 ft 240 kts 250°
2026-05-07 18:58 50.02658 8.08749 8246 ft 242 kts 250°
2026-05-07 18:58 50.02059 8.06292 8141 ft 242 kts 250°
2026-05-07 18:58 50.01471 8.03885 8066 ft 241 kts 250°
2026-05-07 18:58 50.00865 8.01410 8067 ft 242 kts 250°
2026-05-07 18:59 50.00263 7.98964 8071 ft 242 kts 250°
2026-05-07 18:59 49.99666 7.96533 7870 ft 240 kts 250°
2026-05-07 18:59 49.99073 7.94112 7537 ft 239 kts 250°
2026-05-07 18:59 49.98482 7.91695 7211 ft 238 kts 250°
2026-05-07 19:00 49.97895 7.89301 6857 ft 237 kts 250°
2026-05-07 19:00 49.97144 7.87048 6559 ft 236 kts 229°
2026-05-07 19:00 49.95792 7.85666 6211 ft 237 kts 197°
2026-05-07 19:00 49.94157 7.85616 5882 ft 237 kts 163°
2026-05-07 19:01 49.92762 7.86944 5702 ft 241 kts 130°
2026-05-07 19:01 49.92013 7.89227 5515 ft 240 kts 101°
2026-05-07 19:01 49.91774 7.91786 5344 ft 240 kts 94°
2026-05-07 19:01 49.91618 7.94356 5167 ft 239 kts 94°
2026-05-07 19:02 49.91473 7.96914 5054 ft 238 kts 94°
2026-05-07 19:02 49.91545 7.99454 5026 ft 235 kts 73°
2026-05-07 19:02 49.92101 8.01837 5032 ft 236 kts 67°
2026-05-07 19:02 49.92690 8.04218 5025 ft 236 kts 67°
2026-05-07 19:03 49.93280 8.06600 5027 ft 236 kts 68°
2026-05-07 19:03 49.93867 8.08984 5026 ft 237 kts 68°
2026-05-07 19:03 49.94447 8.11378 5027 ft 237 kts 68°
2026-05-07 19:03 49.95017 8.13771 5029 ft 237 kts 68°
2026-05-07 19:04 49.95596 8.16164 5014 ft 237 kts 68°
2026-05-07 19:04 49.96186 8.18588 4795 ft 236 kts 68°
2026-05-07 19:04 49.96762 8.20956 4478 ft 233 kts 68°
2026-05-07 19:04 49.97325 8.23272 4160 ft 232 kts 68°
2026-05-07 19:05 49.97900 8.25641 3815 ft 230 kts 68°
2026-05-07 19:05 49.98463 8.27962 3486 ft 229 kts 68°
2026-05-07 19:05 49.99022 8.30271 3154 ft 228 kts 68°
2026-05-07 19:05 49.99571 8.32542 2837 ft 219 kts 68°
2026-05-07 19:06 50.00089 8.34686 2515 ft 204 kts 68°
2026-05-07 19:06 50.00996 8.38449 1992 ft 167 kts 68°
2026-05-07 19:06 50.01364 8.39974 1753 ft 149 kts 68°
2026-05-07 19:07 50.01711 8.41412 1542 ft 140 kts 68°
2026-05-07 19:07 50.02054 8.42837 1339 ft 137 kts 69°
2026-05-07 19:07 50.02389 8.44226 1149 ft 137 kts 69°
2026-05-07 19:07 50.02720 8.45605 950 ft 136 kts 69°
2026-05-07 19:08 50.03050 8.46977 752 ft 135 kts 69°
2026-05-07 19:08 50.03375 8.48332 557 ft 133 kts 69°
2026-05-07 19:08 50.03695 8.49669 378 ft 132 kts 69°
2026-05-07 19:08 50.03997 8.50918 324 ft 111 kts 70°
2026-05-07 19:09 50.04209 8.51811 333 ft 65 kts 70°
2026-05-07 19:09 50.04320 8.52273 351 ft 36 kts 70°
2026-05-07 19:09 50.04388 8.52597 352 ft 27 kts 80°
2026-05-07 19:09 50.04389 8.52847 350 ft 25 kts 98°
2026-05-07 19:10 50.04365 8.53070 359 ft 23 kts 99°
2026-05-07 19:10 50.04353 8.53184 361 ft 18 kts 98°
2026-05-07 19:10 50.04362 8.53348 371 ft 12 kts 71°
2026-05-07 19:10 50.04386 8.53455 374 ft 9 kts 70°
2026-05-07 19:11 50.04397 8.53549 376 ft 10 kts 84°
2026-05-07 19:11 50.04406 8.53681 375 ft 14 kts 84°
2026-05-07 19:11 50.04418 8.53855 375 ft 18 kts 84°
2026-05-07 19:11 50.04431 8.54049 375 ft 21 kts 84°
2026-05-07 19:12 50.04446 8.54287 375 ft 23 kts 84°
2026-05-07 19:12 50.04449 8.54499 371 ft 18 kts 100°
2026-05-07 19:12 50.04401 8.54661 367 ft 17 kts 127°
2026-05-07 19:12 50.04316 8.54768 357 ft 18 kts 152°
2026-05-07 19:13 50.04199 8.54835 355 ft 16 kts 160°
2026-05-07 19:13 50.04102 8.54891 350 ft 7 kts 160°
2026-05-07 19:13 50.04084 8.54901 354 ft 1 kts 160°
2026-05-07 19:13 50.04067 8.54911 357 ft 4 kts 160°
2026-05-07 19:14 50.04033 8.54936 357 ft 6 kts 144°
2026-05-07 19:14 50.04018 8.55006 355 ft 9 kts 82°
2026-05-07 19:14 50.04044 8.55122 355 ft 14 kts 70°
2026-05-07 19:14 50.04083 8.55286 358 ft 20 kts 70°
2026-05-07 19:15 50.04133 8.55493 353 ft 22 kts 70°
2026-05-07 19:15 50.04187 8.55723 357 ft 23 kts 70°
2026-05-07 19:15 50.04244 8.55961 361 ft 24 kts 70°
2026-05-07 19:15 50.04302 8.56204 361 ft 25 kts 69°
2026-05-07 19:16 50.04357 8.56434 363 ft 25 kts 69°
2026-05-07 19:16 50.04417 8.56683 360 ft 25 kts 70°
2026-05-07 19:16 50.04479 8.56945 360 ft 26 kts 70°
2026-05-07 19:16 50.04544 8.57215 361 ft 28 kts 69°
2026-05-07 19:17 50.04613 8.57503 361 ft 27 kts 69°
2026-05-07 19:17 50.04655 8.57679 362 ft 13 kts 69°
2026-05-07 19:17 50.04688 8.57817 362 ft 12 kts 70°
2026-05-07 19:17 50.04723 8.57908 362 ft 11 kts 36°
2026-05-07 19:18 50.04790 8.57911 364 ft 10 kts 341°
2026-05-07 19:18 50.04840 8.57862 361 ft 7 kts 320°
2026-05-07 19:18 50.04891 8.57860 363 ft 7 kts 18°
2026-05-07 19:18 50.04915 8.57873 359 ft 3 kts 21°
2026-05-07 19:19 50.04923 8.57878 365 ft 0 kts 21°